Location: Florence
(33.9745°N, 118.2481°W)
Time: 18:59:51
(UTC+00:00)

Cosmos 1680 Rocket - Pass Details

Date: 23 March 2023
Orbit: 759 x 780 km, 74.1° (Epoch: 06 June)

Event Time Altitude Azimuth Distance (km) Brightness Sun altitude
Exits shadow 12:54:48 17° 245° (WSW) 1,858 4.9 -12.8°
Maximum altitude 12:57:51 29° 294° (WNW) 1,380 4.4 -12.2°
Drops below altitude 10° 13:02:23 10° 354° (N) 2,311 6.0 -11.2°
Sets 13:05:05 0° 5° (N) 3,245 6.9 -10.7°
